ソーホー彗星

321P/SOHO (2012)

English version
Home page
Updated on June 14, 2015

---------------------------------------------------------------------

・ プロフィール

符号 321P/2012 M2

・ 軌道要素

Epoch 2012 July 12.0 TT = JDT 2456120.5
T 2012 June 30.48402 TT                                 MPCW
q   0.0470010            (2000.0)            P               Q
n   0.26064312     Peri.  172.42539     +0.92707896     +0.36480975
a   2.4271980      Node   165.25710     -0.35925219     +0.93033930
e   0.9806357      Incl.   19.81045     -0.10706285     +0.03718386
P   3.78
From 90 observations 1997 May 1-2012 June 30.  Nongravitational parameters
     A1 = +0.00, A2 = -0.0002.

・ 光度変化

        m1 = 20 + 5 logΔ + 10 log r

---------------------------------------------------------------------

軌道要素はM.P.E.C. 2015-K01に掲載されたものです。
光度グラフはComet for Windowsで作成したものです。

---------------------------------------------------------------------

Copyright(C) Seiichi Yoshida (comet@aerith.net). All rights reserved.